Location: An Tulaigh
(53.1928°N, 8.1647°W)
Time: 22:05:33
(UTC+00:00)

CZ-4B R/B - Pass Details

Date: 15 May 2026
Orbit: 442 x 557 km, 97.8° (Epoch: 11 June)

Event Time Altitude Azimuth Distance (km) Brightness Sun altitude
Exits shadow 22:25:19 11° 201° (SSW) 1,519 4.7 -13.0°
Maximum altitude 22:28:12 31° 263° (W) 840 4.0 -13.2°
Drops below altitude 10° 22:31:21 10° 328° (NNW) 1,640 6.7 -13.4°
Sets 22:33:37 0° 339° (NNW) 2,544 8.2 -13.6°
